Lid_Strength_Index
12 12 12 12 12 12 13 13 13 13 13 13 13 13 13 14 14 14 14 13 12 11 10 10 10 9 9 9 9 8 9 9 10 10 9 8 8 8 8 8 7 7 7
12 12 12 12 12 13 13 13 13 13 13 13 13 14 14 14 14 14 14 13 13 11 10 10 10 9 9 9 9 9 9 9 10 11 10 9 9 9 8 8 8 7 7
12 12 12 13 13 13 13 13 13 13 13 13 14 14 14 14 14 14 13 13 11 11 10 10 10 9 10 9 9 9 9 9 10 10 11 9 9 9 9 9 8 8 8
12 12 12 12 12 12 13 13 13 13 13 13 14 14 15 14 14 14 13 11 11 10 10 10 9 9 10 9 9 10 9 10 10 10 10 10 10 10 10 10 10 11 9
12 12 12 12 12 12 13 13 13 12 13 13 14 14 15 14 14 14 12 11 11 11 10 10 9 10 10 9 9 9 9 11 10 10 11 11 11 11 11 10 10 10 9
11 12 12 11 12 13 13 12 12 13 14 14 14 15 15 14 11 10 10 12 11 11 11 10 10 10 9 9 9 9 9 10 10 10 11 12 11 10 10 11 11 12 12
11 12 11 12 12 12 12 12 13 13 14 14 15 14 15 14 11 10 10 11 11 10 10 10 10 10 10 10 10 9 9 9 9 9 10 11 11 10 12 13 13 13 13
12 12 11 12 12 11 12 12 13 14 14 14 14 14 14 12 10 10 11 11 10 11 10 10 11 11 10 10 10 10 10 10 10 9 9 9 11 12 13 13 14 14 13
12 13 12 11 11 12 12 13 13 14 14 14 14 14 12 12 10 11 10 11 11 11 11 11 11 11 10 9 10 11 12 11 9 8 10 11 12 12 13 15 15 16 13
11 11 10 10 11 11 11 12 13 13 13 12 12 11 13 13 10 9 10 12 12 12 11 11 11 11 10 9 10 11 13 12 12 11 12 13 14 14 15 16 17 17 16
10 10 10 10 10 11 12 13 13 14 13 12 12 13 12 12 12 9 9 11 12 11 11 11 11 10 9 9 9 11 12 11 12 14 14 15 15 15 16 17 18 18 18
10 10 10 10 10 12 13 13 13 13 13 14 15 16 15 12 11 10 9 9 10 11 12 11 11 10 10 10 10 10 11 12 13 14 15 15 16 16 17 17 18 19 19
10 10 10 11 12 12 13 12 12 12 13 14 14 15 15 14 12 10 9 9 9 11 11 11 10 9 10 10 10 11 13 14 14 15 16 16 16 16 16 17 18 19 19
10 10 10 11 12 12 12 12 12 12 14 14 14 14 15 16 15 15 14 14 11 11 11 11 10 10 11 11 15 13 13 15 15 15 16 17 19 21 20 19 20 20 20
10 11 12 11 12 12 12 12 12 12 11 12 13 15 17 19 16 13 14 12 11 10 11 11 12 13 13 13 15 15 14 15 15 15 20 19 23 23 22 21 21 21 22
11 11 11 11 11 11 11 13 9 10 9 9 10 12 13 11 9 9 9 9 9 9 12 13 13 13 14 13 14 19 15 16 16 17 21 23 26 25 24 23 21 22 24
10 11 11 11 11 12 12 12 13 12 8 8 8 7 8 10 9 8 8 8 9 9 12 13 17 14 13 13 14 20 18 16 17 22 25 26 26 26 26 25 25 26 30
12 11 10 10 10 11 11 12 12 11 12 15 11 9 8 7 7 7 7 9 15 13 12 13 14 15 13 13 14 20 18 16 18 24 26 28 29 28 29 28 30 31 32
12 11 9 10 10 11 12 13 13 14 16 20 20 14 16 9 8 8 8 18 19 19 12 13 13 16 13 14 16 21 18 19 22 23 24 30 30 28 31 31 31 31 32
12 12 12 11 12 12 13 14 13 14 16 20 21 21 16 18 19 21 23 21 21 17 12 13 14 20 20 21 22 22 21 21 25 22 29 31 31 28 30 31 33 33 34
12 12 12 12 12 12 12 12 13 13 16 17 17 21 13 13 13 18 22 24 22 20 17 16 19 21 22 22 23 23 22 19 21 25 29 31 31 31 33 31 32 34 31
13 13 12 13 13 13 13 13 14 15 16 17 19 20 10 15 15 21 21 20 19 18 17 18 18 20 20 19 19 20 21 18 20 24 28 30 31 31 32 32 32 35 37
14 14 14 13 13 13 14 16 15 15 15 17 17 17 17 14 11 11 11 11 17 21 19 23 19 22 23 19 18 17 18 17 18 22 25 28 30 30 30 32 32 37 37
17 16 16 15 15 15 14 14 13 14 14 17 19 19 19 19 18 16 16 13 9 11 14 22 20 19 20 19 18 17 18 15 18 21 23 26 29 30 31 32 32 37 33
21 19 18 17 16 16 15 15 15 19 18 18 14 14 19 21 19 17 16 15 10 9 10 12 19 20 18 18 17 16 15 16 18 21 23 25 28 30 30 30 32 33 37
26 25 25 23 19 18 17 17 17 15 16 18 22 23 22 21 19 17 16 16 15 12 13 11 12 16 18 17 17 14 15 16 19 21 22 24 27 30 30 31 32 30 32